Weather History for Winfield, KS

Change the Weather History Date:

Wednesday, July 31, 2013

  Actual Average Record
Temperature  
Mean Temperature 78 °F -  
Max Temperature 87 °F 91 °F 109 °F (2012)
Min Temperature 69 °F 69 °F 62 °F (2014)
Cooling Degree Days 12    
Growing Degree Days 28 (Base 50)    
Moisture  
Dew Point 70 °F    
Average Humidity 85    
Maximum Humidity 100    
Minimum Humidity 55    
Precipitation  
Precipitation 0.00 in - - ()
Sea Level Pressure  
Sea Level Pressure 30.09 in    
Wind  
Wind Speed 6 mph (NNE)    
Max Wind Speed 12 mph    
Max Gust Speed -    
Visibility 8 miles    
Events Fog    
Averages and records for this station are not official NWS values.
T = Trace of Precipitation, MM = Missing Value Source: NWS Daily Summary

Daily Weather History Graph

Daily Weather History Graph

Search for Another Location

Airport:

Trip Planner

Search our weather history database for the weather conditions in past years. The results will help you decide how hot, cold, wet, or windy it might be!

Date:

Astronomy

Jul. 31, 2013 Rise Set
Actual Time 6:32 AM CDT 8:36 PM CDT
Civil Twilight 6:03 AM CDT 9:04 PM CDT
Nautical Twilight 5:28 AM CDT 9:39 PM CDT
Astronomical Twilight 4:50 AM CDT 10:17 PM CDT
Moon 1:28 AM CDT (7/31) 3:53 PM CDT (7/31)
Length of Visible Light 15h 01m
Length of Day
14h 03m
Waning Crescent, 31% of the Moon is Illuminated
Jul 31
Waning Crescent
Aug 6
New
Aug 14
First Quarter
Aug 20
Full
Aug 28
Last Quarter

Hourly Weather History & Observations

Time (CDT) Temp. Heat Index Dew Point Humidity Pressure Visibility Wind Dir Wind Speed Gust Speed Precip Events Conditions
12:54 AM 75.0 °F - 73.0 °F 94% 30.05 in 10.0 mi NNE 5.8 mph - N/A   Mostly Cloudy
1:54 AM 73.9 °F - 72.0 °F 93% 30.04 in 10.0 mi NE 3.5 mph - N/A   Clear
2:54 AM 73.0 °F - 71.1 °F 93% 30.04 in 10.0 mi NNE 4.6 mph - N/A   Clear
3:54 AM 72.0 °F - 72.0 °F 100% 30.06 in 8.0 mi NNE 5.8 mph - N/A   Overcast
4:54 AM 71.1 °F - 71.1 °F 100% 30.05 in 8.0 mi NNE 4.6 mph - N/A   Partly Cloudy
5:54 AM 69.1 °F - 69.1 °F 100% 30.07 in 7.0 mi North 3.5 mph - N/A   Partly Cloudy
6:51 AM 69.8 °F - 69.8 °F 100% 30.12 in 4.0 mi North 4.6 mph - N/A   Partly Cloudy
6:54 AM 69.1 °F - 69.1 °F 100% 30.09 in 4.0 mi North 4.6 mph - N/A   Partly Cloudy
7:04 AM 69.8 °F - 69.8 °F 100% 30.13 in 2.5 mi North 5.8 mph - N/A   Mostly Cloudy
7:12 AM 69.8 °F - 69.8 °F 100% 30.13 in 0.8 mi North 8.1 mph - N/A   Mist
7:20 AM 69.8 °F - 69.8 °F 100% 30.13 in 0.5 mi North 5.8 mph - N/A Fog Fog
7:44 AM 69.8 °F - 69.8 °F 100% 30.15 in 0.8 mi North 5.8 mph - N/A   Mist
7:54 AM 71.1 °F - 71.1 °F 100% 30.12 in 1.2 mi North 6.9 mph - N/A   Overcast
8:12 AM 71.6 °F - 71.6 °F 100% 30.16 in 3.0 mi North 9.2 mph - N/A   Overcast
8:54 AM 72.0 °F - 72.0 °F 100% 30.12 in 6.0 mi NE 5.8 mph - N/A   Mostly Cloudy
9:23 AM 75.2 °F - 71.6 °F 89% 30.14 in 9.0 mi NE 6.9 mph - N/A   Scattered Clouds
9:54 AM 75.9 °F - 72.0 °F 87% 30.10 in 10.0 mi ENE 5.8 mph - N/A   Partly Cloudy
10:54 AM 80.1 °F 83.8 °F 72.0 °F 76% 30.10 in 10.0 mi NE 5.8 mph - N/A   Partly Cloudy
11:54 AM 81.0 °F 84.9 °F 71.1 °F 72% 30.10 in 10.0 mi NNE 6.9 mph - N/A   Mostly Cloudy
12:54 PM 82.0 °F 85.5 °F 69.1 °F 65% 30.10 in 10.0 mi North 9.2 mph - N/A   Mostly Cloudy
1:54 PM 84.0 °F 87.8 °F 69.1 °F 61% 30.09 in 10.0 mi NNE 11.5 mph - N/A   Scattered Clouds
2:54 PM 86.0 °F 90.1 °F 69.1 °F 57% 30.08 in 10.0 mi Variable 6.9 mph - N/A   Clear
3:54 PM 86.0 °F 89.4 °F 68.0 °F 55% 30.06 in 10.0 mi East 8.1 mph - N/A   Clear
4:54 PM 84.9 °F 88.2 °F 68.0 °F 57% 30.04 in 10.0 mi ESE 6.9 mph - N/A   Clear
5:54 PM 84.0 °F 87.0 °F 68.0 °F 58% 30.04 in 10.0 mi East 5.8 mph - N/A   Clear
6:54 PM 82.9 °F 86.5 °F 69.1 °F 63% 30.03 in 10.0 mi East 4.6 mph - N/A   Clear
7:54 PM 82.0 °F 85.5 °F 69.1 °F 65% 30.04 in 10.0 mi East 4.6 mph - N/A   Clear
8:54 PM 79.0 °F - 71.1 °F 77% 30.04 in 10.0 mi East 3.5 mph - N/A   Clear
9:54 PM 75.9 °F - 72.0 °F 87% 30.09 in 10.0 mi Calm Calm - N/A   Clear
10:54 PM 73.9 °F - 72.0 °F 93% 30.08 in 10.0 mi North 3.5 mph - N/A   Clear
11:54 PM 73.9 °F - 70.0 °F 87% 30.06 in 10.0 mi NE 3.5 mph - N/A   Clear